Back to catalog

YZ-1 R/B

LostGEO
NORAD 66553·ROCKET BODY·🇨🇳 China

Launched Sep 5, 2025 from Xichang Satellite Launch Center

Loading…

TLE

AgingSource: Space-Track

Epoch: Aug 6, 2026, 21:19 UTC

1 66553U 25196C   26218.88871618 -.00000086  00000-0  00000-0 0  9999
2 66553  28.7708  18.2007 0095325 239.4720 119.6054  0.98087548  3376

Track YZ-1 R/B in real time with AllMySat

Download on the App Store